Meath Environmental Platform

Observations for Trim Patrick St

Time AQI Temp °C Hum % Pres Pa CO μg/m³ H₂S μg/m³ NO μg/m³ NO₂ μg/m³ O₃ μg/m³ SO₂ μg/m³ PM1 μg/m³ PM2.5 μg/m³ PM10 μg/m³
Friday 28 August 2026
05:22 3 16.1 88 38,459 0.16 1.16 1.75 13.62 29.79 0 10.57 17.65 19.41
05:21 3 16.1 88 38,459 0.17 1.63 2.44 14 27.14 0 11.43 16.96 18.65
05:20 3 16.1 88 38,459 0.17 1.5 2.17 13.16 31.67 0 8.86 13.54 14.9
05:18 3 16.1 88 38,459 0.16 1.27 1.6 13.03 30.25 0 9.71 16.96 18.65
05:17 3 16.2 88 38,459 0.16 1.66 1.51 12.84 30.29 0 11.43 18.33 20.16
05:16 3 16.1 88 38,459 0.16 1.45 1.42 13.63 28.37 0 11.43 15.6 17.16
05:15 3 16.1 88 38,459 0.16 0.85 1.42 13.02 29.4 0 11.43 17.65 19.41
05:14 3 16.2 88 38,459 0.16 1.27 1.48 12.84 29.83 0 9.71 16.28 17.91
05:13 3 16.1 88 38,459 0.17 1.01 1.46 13.27 30.27 0 10.57 15.6 17.16
05:10 3 16.2 88 38,459 0.16 1.89 1.33 15.14 23.47 0 9.71 14.92 16.41
05:08 3 16.2 88 38,459 0.17 1.29 1.76 13.53 27.8 0 10.57 16.98 18.67
05:07 3 16.2 88 38,459 0.15 1.34 2.46 13.3 29.22 0 11.43 15.6 17.16
05:06 3 16.2 88 38,459 0.16 1.19 2.46 13.54 26.23 0 9.71 15.6 17.16
05:04 3 16.2 88 38,459 0.16 2.02 1.74 13.89 27.38 0 10.57 16.29 17.92
05:02 3 16.2 88 38,459 0.16 1.45 1.91 13.54 29.4 0 10.57 15.6 17.16
05:00 3 16.2 88 38,459 0.16 1.08 2.18 14.15 24.81 0 12.29 16.28 17.91
04:59 3 16.2 88 38,459 0.15 1.45 3.16 14.89 24.63 0 8.86 14.92 16.41
04:58 3 16.2 88 38,459 0.17 1.53 2.53 15.71 22.36 0 12.29 16.28 17.91
04:54 3 16.2 88 38,459 0.16 0.61 1.92 12.97 31.75 0 9.71 16.28 17.91
04:53 3 16.2 88 38,459 0.16 0.69 1.92 12.59 34.11 0 10.57 17.66 19.42